Wind_Speed
33 33 34 36 36 36 35 33 31 29 27 25 24 22 22 21 21 21 21 21 20 20 21 21 20 19 18 17 16 16 15 15 14 13 13 13 13 15 17 18 19 19 20 21 22 22 22 24 26 27 26 25 24 23 22 22 22 23 24 26 29 30 31 32 31 31 30 30 30
31 32 33 33 34 34 32 31 28 26 24 21 19 16 16 16 16 17 17 17 17 17 18 18 18 17 16 16 15 15 14 14 14 14 15 17 18 20 21 22 23 23 24 25 25 25 25 26 26 25 24 23 22 21 21 21 22 24 27 29 30 31 31 31 31 31 31 31 31
29 30 30 31 31 30 29 27 24 22 18 15 12 11 12 13 14 15 15 15 15 16 16 16 15 15 15 14 14 14 15 15 17 19 21 23 24 25 25 26 27 28 29 29 27 26 25 24 23 22 21 21 21 21 22 23 24 26 28 30 30 31 31 31 31 31 31 31 31
28 28 28 28 27 26 24 22 20 16 13 10 8 8 10 12 13 14 14 14 14 14 14 14 14 14 14 15 16 17 19 21 23 24 26 28 29 29 30 30 31 31 30 28 26 24 23 21 20 19 20 20 21 23 24 25 26 27 29 30 30 31 31 32 32 32 32 31 31
26 26 26 25 24 22 20 18 15 12 10 8 7 7 9 11 12 13 13 12 12 13 13 14 15 16 18 20 22 24 26 28 29 31 32 33 33 33 32 31 30 28 25 23 22 20 19 18 18 19 20 21 23 24 26 27 28 29 30 30 31 31 31 31 31 31 31 31 31
25 24 23 22 20 19 17 15 14 12 10 9 8 8 9 10 11 12 12 13 13 14 16 18 20 23 25 27 29 31 33 34 34 34 34 33 32 30 28 26 24 22 21 19 17 17 16 17 18 20 22 23 25 26 27 28 28 29 30 30 31 31 31 31 31 31 30 30 30
23 21 20 19 18 17 16 15 14 12 11 10 10 10 10 11 12 13 14 15 16 18 20 22 25 28 30 32 33 34 34 33 32 31 29 27 26 24 23 22 20 18 16 15 15 15 16 18 20 22 24 25 26 27 28 28 29 29 30 31 31 31 31 31 31 31 31 31 31
21 19 18 18 17 16 15 14 13 12 11 10 10 11 12 13 13 14 15 16 17 19 20 22 26 29 30 30 30 29 28 27 26 25 23 23 22 21 20 18 15 14 13 14 15 17 18 20 22 24 25 26 27 28 29 29 30 30 31 32 32 32 32 32 32 32 32 32 32
19 18 17 16 15 15 15 14 13 11 10 10 11 12 14 15 15 16 16 17 18 19 20 21 23 24 25 24 22 21 20 20 19 19 19 19 18 16 15 13 13 13 14 15 17 18 20 22 24 25 26 28 29 30 30 31 31 32 33 33 33 33 33 33 33 33 33 33 33
18 17 17 16 15 15 14 14 13 12 11 11 12 13 15 17 17 17 18 18 18 18 19 19 20 19 18 17 16 16 16 16 16 16 16 15 13 12 11 12 13 15 16 17 19 20 22 24 25 27 28 29 30 31 32 32 33 33 34 34 34 34 34 34 34 34 34 34 34
18 18 18 17 16 16 15 14 13 13 12 12 13 14 16 16 17 18 18 18 18 18 18 17 16 14 13 13 13 13 14 14 14 13 12 11 10 11 12 14 15 17 18 19 21 22 24 26 27 28 29 30 31 32 32 33 33 34 34 34 35 35 35 35 35 35 34 34 34
19 19 18 18 17 16 15 15 14 14 13 13 13 14 15 15 17 17 17 17 17 17 16 14 12 11 11 11 12 12 12 12 11 10 10 11 12 13 14 16 17 19 20 21 23 24 26 27 29 30 31 31 32 32 33 33 33 34 34 35 35 36 36 36 36 35 35 35 35
20 20 19 17 16 16 15 15 14 14 13 13 13 13 14 14 15 16 16 16 15 14 13 11 10 10 10 11 11 11 11 10 10 10 11 13 14 16 17 18 19 21 22 23 25 26 28 29 30 31 31 32 32 32 33 33 34 34 35 36 36 37 37 37 37 36 36 36 35
20 19 18 17 16 16 15 14 14 13 13 13 13 13 13 13 14 15 15 15 14 12 11 10 10 10 11 12 11 10 9 9 10 11 13 14 16 17 19 20 21 22 24 25 26 28 29 30 31 31 32 32 33 33 33 34 35 35 36 37 37 37 37 37 37 36 36 35 35
19 18 17 17 16 15 14 14 13 13 13 13 14 14 14 15 15 15 14 14 14 13 11 10 10 12 13 14 12 10 9 9 11 12 14 16 17 19 20 21 22 24 25 27 28 29 30 30 31 31 32 32 33 34 34 35 36 36 37 37 37 37 36 36 35 34 34 34 34
18 17 16 16 15 14 13 14 14 14 14 15 16 16 16 16 16 15 14 14 14 13 12 12 13 15 16 15 12 10 9 10 12 14 15 17 19 20 21 22 24 25 27 28 29 30 30 31 31 32 32 33 34 35 36 36 37 37 36 36 35 34 34 33 33 32 32 32 33
16 15 15 14 14 14 13 14 14 15 16 17 17 17 17 17 16 15 14 14 14 13 14 15 17 17 16 13 11 10 10 12 14 15 17 19 20 21 23 24 25 27 28 29 30 31 31 31 32 32 33 34 35 36 36 36 36 35 34 33 32 32 32 32 31 31 31 32 32
15 15 14 14 14 14 14 14 15 16 16 17 17 17 17 16 15 14 14 14 14 15 17 18 17 15 13 11 11 11 12 14 16 17 19 20 22 23 25 26 27 28 29 30 31 31 32 32 33 34 34 35 35 35 35 34 33 33 32 32 31 32 32 32 32 32 32 32 32
15 15 15 14 14 14 15 16 16 17 17 18 18 17 16 14 14 13 13 15 17 18 18 16 13 12 11 11 11 13 14 16 18 19 20 22 23 25 26 27 28 29 30 31 31 32 33 33 34 34 34 34 34 33 33 32 32 32 32 32 32 32 32 32 32 32 33 33 33
15 15 15 14 14 15 16 17 18 18 19 19 18 17 15 14 13 14 16 18 18 16 13 11 10 10 10 11 13 14 16 17 19 20 22 23 25 26 27 29 30 30 31 32 32 33 33 33 33 33 33 32 32 32 32 32 32 32 32 33 33 33 33 33 33 33 33 33 33
15 15 14 15 16 16 17 18 19 20 20 19 18 17 15 15 16 18 19 17 14 11 9 9 9 10 11 12 14 15 17 18 20 22 23 25 26 28 29 30 30 31 32 32 32 32 32 32 31 31 31 31 31 32 32 32 33 33 33 33 33 33 33 33 33 33 33 33 33
15 15 15 16 17 18 19 20 21 22 22 21 20 18 17 18 19 19 16 12 10 9 8 8 9 10 12 13 15 16 18 20 22 23 25 26 28 29 29 30 31 31 31 31 31 30 30 30 30 30 30 31 32 32 32 32 33 33 33 33 33 34 34 34 34 34 34 34 33
18 17 17 17 18 19 20 22 23 24 23 22 21 21 21 22 20 16 12 10 8 8 8 9 10 11 13 14 16 18 20 22 24 25 26 27 28 28 29 29 29 29 29 28 28 28 28 29 30 30 31 31 32 32 32 33 33 33 33 34 34 34 35 35 35 35 35 35 35
20 20 20 20 20 20 21 22 23 23 23 23 23 24 23 21 16 12 10 9 9 9 9 10 12 13 14 16 18 20 22 23 24 25 25 26 26 27 27 26 26 26 26 26 27 27 28 29 30 31 31 32 32 32 33 33 33 33 34 34 35 35 36 36 37 37 37 37 37
21 21 22 21 20 20 19 20 20 21 22 23 24 23 20 16 13 11 10 10 9 10 11 13 14 15 16 18 20 22 22 23 23 24 24 24 25 25 24 24 25 25 26 26 27 28 29 29 30 31 31 32 32 33 33 33 34 34 35 35 36 37 38 38 39 40 40 40 40
20 20 20 20 20 19 19 19 20 21 22 22 20 18 15 13 12 11 11 10 11 12 13 14 16 17 18 20 22 22 22 22 22 23 23 24 24 24 24 24 25 26 26 27 28 29 29 30 30 31 32 32 33 33 34 35 35 35 36 36 37 38 39 40 41 41 42 42 42
18 18 19 19 19 20 21 21 21 21 19 17 15 13 12 12 12 12 11 12 12 13 15 16 18 19 20 21 22 22 22 22 22 23 23 23 24 24 24 25 26 27 28 28 29 30 30 31 31 31 32 32 33 34 35 35 36 36 37 37 38 39 40 41 42 43 43 44 44
18 18 18 18 19 19 19 19 18 16 14 13 12 11 11 12 12 12 12 13 14 15 17 19 19 20 20 20 21 22 22 23 23 23 23 23 24 25 25 26 27 28 29 29 30 30 31 31 31 32 32 33 33 34 35 36 37 37 38 38 39 40 41 42 43 44 44 44 44
18 17 17 16 16 15 14 14 13 13 12 12 12 12 12 12 12 12 13 14 16 18 20 21 21 20 19 20 21 21 22 23 23 23 24 24 25 25 26 27 28 29 29 30 30 31 31 32 32 33 33 33 34 35 36 37 37 38 39 40 41 41 42 43 43 43 43 42 41
17 16 15 15 14 13 13 13 13 13 12 12 12 12 13 12 12 13 14 16 18 20 21 22 21 20 20 20 20 21 22 23 23 24 24 25 26 26 27 28 29 30 30 31 31 32 32 33 33 33 34 34 35 36 37 38 39 40 41 42 42 42 42 41 41 40 38 37 35
16 15 15 14 14 14 14 14 14 13 13 13 14 13 13 13 13 14 16 18 20 21 21 21 20 20 20 20 20 21 23 24 24 24 25 25 26 27 28 29 30 30 31 31 32 32 33 33 34 34 34 35 36 37 38 39 40 41 42 42 41 40 39 37 35 34 32 31 30
15 15 15 15 15 15 15 15 15 14 14 14 14 14 13 14 15 17 19 20 20 20 20 21 21 21 20 20 21 22 23 24 24 24 25 26 27 28 29 30 30 31 31 32 32 33 33 34 34 35 35 36 37 38 39 40 41 41 41 39 37 35 33 31 29 28 27 26 26
16 15 15 15 15 16 16 16 16 15 15 14 14 14 15 17 19 20 20 20 20 20 21 21 21 20 20 20 22 23 24 24 24 25 25 26 27 29 30 30 31 31 31 32 32 33 33 34 34 35 36 36 38 39 40 40 40 38 36 34 31 29 27 26 25 24 24 23 24
16 16 16 16 17 17 17 17 16 15 14 13 14 15 17 19 20 20 19 20 21 22 22 21 19 19 20 21 23 24 24 24 25 25 26 27 28 29 30 30 31 31 31 32 32 33 33 34 35 35 36 37 39 39 39 38 35 32 29 27 26 25 24 23 23 23 23 23 24
17 17 17 17 18 18 18 16 15 13 13 14 15 17 18 19 19 19 20 22 23 22 21 19 18 19 21 22 23 24 24 25 25 26 27 28 29 29 30 30 31 31 31 32 32 33 33 34 35 36 37 38 39 38 35 32 28 26 25 24 23 23 22 22 22 23 23 23 24
17 17 17 17 17 17 15 14 13 13 14 15 16 17 17 18 19 21 22 23 23 21 20 19 19 21 22 23 23 23 24 25 26 27 27 28 29 29 30 30 31 31 31 32 32 33 34 35 36 37 38 37 36 32 28 25 23 23 22 22 22 22 22 22 22 22 23 23 23
15 15 15 15 14 13 13 13 13 14 14 15 16 16 18 20 22 24 24 23 22 20 19 20 21 22 23 23 24 24 24 25 26 27 28 28 28 29 29 30 31 31 32 32 33 34 35 36 37 37 36 33 29 25 22 21 21 22 22 22 22 22 23 23 22 22 22 23 24
12 12 12 12 12 12 12 12 12 13 13 15 16 18 21 23 25 25 24 22 20 20 20 21 22 23 23 23 24 24 25 25 26 27 27 27 28 28 29 30 31 32 32 33 34 35 36 36 35 34 30 26 22 20 19 20 22 22 22 22 23 24 24 24 23 24 25 27 28
10 10 10 10 11 11 11 11 12 13 15 17 20 22 24 25 25 23 22 20 19 20 21 23 23 23 23 24 24 25 25 25 25 26 26 27 28 29 30 31 32 33 34 34 35 35 35 33 31 28 24 20 18 18 19 21 22 22 22 23 24 25 26 26 27 29 30 32 33
11 11 10 10 10 10 11 12 14 16 19 21 23 24 24 24 22 20 19 19 20 21 22 23 23 24 24 24 24 25 25 25 25 25 26 27 28 29 30 31 33 34 35 34 34 33 31 29 25 22 19 17 16 17 19 20 21 22 23 24 26 27 29 30 31 32 33 34 34
11 10 9 9 10 11 13 16 18 20 22 23 23 23 21 20 19 18 19 20 21 22 23 23 23 24 24 24 24 24 24 24 25 25 26 27 28 30 31 32 33 34 34 33 31 29 26 23 20 18 16 16 16 17 19 20 21 22 24 26 28 30 32 33 33 34 34 35 35
Wind_Direction
309 311 313 315 316 319 322 324 326 326 322 313 298 280 261 246 236 229 226 224 219 214 210 207 206 206 207 209 211 212 213 215 218 222 226 231 236 238 239 241 243 248 253 258 260 263 267 274 281 286 288 290 291 292 292 292 291 289 288 287 288 290 291 291 292 292 293 293 293
310 312 313 315 317 319 323 326 328 328 323 314 299 276 251 233 221 214 211 211 205 201 198 197 198 200 204 207 210 213 216 219 224 228 232 235 239 241 243 246 251 257 264 269 271 273 278 283 287 290 293 293 294 293 292 290 288 287 287 287 288 289 290 290 290 291 292 293 293
312 313 313 315 317 320 324 327 328 326 321 311 293 263 233 215 206 204 202 197 193 192 192 193 195 199 204 210 214 218 222 227 233 237 240 243 245 248 251 256 263 269 275 278 279 281 284 287 290 293 294 294 293 292 290 289 287 287 287 287 288 288 289 289 290 291 292 292 292
313 313 314 315 317 320 323 325 326 323 315 302 277 241 217 207 205 202 198 193 191 191 193 197 202 207 213 218 223 228 233 238 242 246 249 252 255 259 263 268 274 278 281 283 284 286 288 290 292 294 293 293 291 290 289 289 288 287 287 287 288 288 289 289 290 291 292 292 292
314 314 314 315 317 319 321 321 320 315 304 288 263 235 219 214 209 207 204 202 202 203 206 212 218 223 229 233 237 240 244 247 251 255 258 262 266 270 274 278 281 284 286 287 289 291 293 295 295 294 292 291 290 289 289 289 288 288 287 287 287 288 289 289 290 291 292 292 292
314 314 314 314 315 316 317 316 314 308 297 284 268 251 238 231 227 224 222 222 223 226 229 233 236 239 243 246 248 250 252 255 258 262 266 270 274 278 281 283 285 287 290 293 296 298 298 297 295 293 291 290 289 289 288 288 288 288 287 288 288 289 290 290 291 292 292 292 292
312 312 312 312 313 313 313 313 311 307 300 290 276 264 254 246 242 239 237 237 238 241 244 247 248 250 251 252 254 255 258 261 266 270 274 277 280 282 284 285 288 292 297 300 300 299 297 295 293 291 290 289 289 288 288 288 288 288 288 289 289 290 291 292 292 293 293 293 292
310 310 310 310 310 310 309 308 306 302 296 287 274 265 258 253 247 245 244 244 244 245 247 249 251 252 253 254 256 260 264 269 273 277 280 282 283 285 287 290 294 298 299 298 297 295 293 291 290 289 289 289 289 289 289 289 289 289 289 290 290 291 291 292 292 292 292 292 292
307 307 307 307 306 304 302 299 295 291 286 280 272 270 270 267 255 248 247 247 246 245 244 244 247 251 254 258 263 269 275 279 281 283 284 285 288 291 295 298 298 296 295 294 293 292 290 289 288 288 288 289 289 289 289 289 290 290 290 290 290 290 290 291 291 291 291 291 291
304 303 302 302 300 297 294 289 284 281 281 280 275 279 283 278 264 254 249 248 246 244 242 242 246 253 261 269 277 282 285 287 288 289 291 294 298 300 300 297 294 292 292 292 291 290 289 288 288 288 288 288 288 289 289 289 289 289 289 289 290 290 290 290 290 290 290 290 289
300 298 297 295 293 289 285 279 275 274 275 277 276 278 280 276 268 261 256 252 249 247 246 247 252 261 271 280 286 290 292 294 295 298 300 303 301 297 293 291 291 291 291 291 290 289 289 288 288 288 288 288 288 288 288 288 289 289 289 289 289 290 290 289 289 289 289 289 289
297 295 293 290 286 281 277 272 269 268 269 271 272 274 274 269 267 265 260 253 249 248 248 250 257 266 276 284 291 295 298 300 302 302 301 297 294 292 290 290 290 291 291 291 291 290 289 289 289 289 288 288 288 288 288 288 289 289 289 289 289 290 290 290 290 289 289 289 288
294 291 288 284 279 274 270 266 263 263 265 268 270 272 270 262 259 255 250 243 241 242 245 250 258 269 280 289 294 297 298 299 297 295 292 291 290 290 289 290 290 291 291 291 290 290 290 290 289 289 289 289 288 289 289 289 290 290 290 290 291 290 290 290 290 290 290 289 288
288 284 280 275 270 266 263 259 259 261 263 264 271 269 261 252 247 243 239 236 235 237 243 251 261 273 282 288 290 291 292 291 291 290 289 289 289 289 289 290 290 291 291 291 291 290 290 290 290 290 290 290 290 290 290 291 291 291 291 291 291 291 291 290 290 290 290 289 289
280 275 270 266 264 262 260 258 259 262 262 259 264 261 252 246 244 245 243 237 238 240 244 253 266 276 282 286 288 290 292 292 290 289 289 288 289 289 290 291 291 292 292 291 291 291 290 290 290 291 291 291 291 292 292 291 291 291 291 291 291 291 290 290 290 290 290 290 289
275 271 267 265 264 264 264 262 262 262 261 259 258 254 250 245 244 244 240 232 236 239 245 257 271 279 285 289 294 299 300 296 292 290 290 290 290 291 292 292 292 292 292 292 292 291 291 291 291 292 292 292 292 292 292 291 291 290 290 290 290 290 290 290 290 290 290 290 290
274 271 269 268 269 270 270 268 266 263 261 259 256 252 247 243 238 233 227 225 231 242 256 269 279 286 293 300 308 309 304 297 293 292 291 292 292 293 293 293 293 293 293 292 292 292 292 292 292 292 292 292 292 291 291 291 290 290 290 290 290 291 291 291 291 291 291 290 290
275 273 273 273 274 274 273 270 267 263 258 255 252 249 244 236 230 226 227 235 250 267 279 286 292 300 309 316 315 308 300 296 294 293 293 293 294 293 293 293 293 293 292 292 292 292 292 292 292 292 291 291 291 290 290 291 291 291 292 292 292 292 292 292 292 291 291 290 290
278 277 277 277 276 273 270 266 262 259 255 251 248 245 241 234 231 236 249 267 280 289 295 301 309 318 322 317 308 300 296 294 294 294 294 294 293 293 293 292 292 292 291 291 291 291 292 292 291 291 291 291 291 291 292 292 293 294 294 294 293 293 292 292 291 291 290 290 289
282 280 279 276 272 268 265 262 260 257 255 251 247 243 240 241 250 265 281 291 297 302 308 316 323 321 313 305 299 297 295 295 295 294 294 293 293 292 291 291 291 291 291 291 291 291 291 291 291 291 291 292 293 293 294 295 295 295 294 294 293 292 292 291 291 290 289 289 288
284 280 276 273 269 266 263 261 259 258 257 253 249 245 248 259 276 289 297 301 304 309 314 318 316 308 301 298 297 296 296 295 294 293 292 292 291 290 290 290 290 290 290 290 290 290 291 291 292 293 294 294 295 295 295 295 295 295 294 293 292 292 291 291 290 289 289 288 287
285 282 277 272 269 266 263 262 262 262 260 257 253 254 264 280 292 298 300 301 302 305 307 306 301 297 294 294 295 295 295 293 292 291 290 289 289 289 289 290 290 290 290 290 291 291 292 293 294 295 296 296 296 296 296 295 295 294 294 293 293 292 291 291 290 289 288 288 287
287 283 278 273 269 266 264 264 265 265 264 262 263 271 282 291 295 295 291 289 291 294 293 290 287 286 287 289 291 292 292 291 290 289 288 288 288 289 289 290 290 291 291 292 293 294 296 297 297 297 297 297 296 296 296 296 295 295 294 293 293 292 291 291 290 289 289 288 287
290 286 281 276 271 268 266 266 267 268 270 272 278 285 291 292 288 281 276 278 281 281 278 275 275 276 280 285 290 292 293 292 290 290 289 290 290 291 291 292 293 293 294 295 296 297 298 298 298 298 297 297 297 296 296 296 295 295 294 293 293 292 292 291 290 289 289 288 288
295 291 286 281 275 271 268 268 270 274 279 284 289 291 289 284 275 270 270 272 271 269 267 266 268 271 279 287 294 297 298 296 294 294 294 294 295 295 296 297 297 298 298 299 299 299 298 298 298 298 298 297 297 296 296 295 294 294 293 293 292 292 291 291 290 290 290 289 289
298 293 288 283 278 275 273 274 276 280 284 287 288 286 281 273 269 267 267 265 264 263 263 265 268 276 285 295 301 304 303 301 299 298 298 299 300 301 301 301 301 301 300 300 299 299 299 298 298 298 298 297 297 296 295 295 294 293 293 292 292 292 291 291 291 291 290 290 289
300 294 288 283 280 278 277 277 278 280 282 283 283 280 275 270 267 264 262 261 262 263 264 267 273 283 294 303 308 308 306 304 302 302 303 303 304 304 304 303 302 302 301 300 300 299 299 299 298 298 298 297 297 296 295 295 294 294 293 293 292 292 292 291 291 291 291 290 290
302 297 291 287 283 281 280 279 279 279 280 282 282 280 274 268 263 260 260 261 262 263 264 268 276 286 298 308 311 310 307 305 305 305 306 306 306 305 304 303 302 301 301 300 300 300 300 299 299 299 298 297 297 296 296 295 295 294 294 293 293 293 292 292 292 292 291 291 291
302 298 294 291 289 287 285 282 280 280 281 283 281 277 270 264 261 260 261 261 260 261 263 268 276 289 304 314 315 311 307 306 307 307 307 307 306 305 303 302 301 301 301 301 301 301 300 300 300 299 298 298 297 297 296 296 295 295 295 294 294 294 294 293 293 292 292 292 292
302 298 294 292 291 290 288 286 284 283 282 280 276 270 265 262 260 259 258 258 258 260 264 271 283 300 315 320 317 311 307 307 307 308 307 306 305 304 302 301 301 301 301 302 302 301 301 300 300 299 299 298 298 297 297 296 296 296 296 296 295 295 294 294 293 293 293 292 292
300 296 293 290 290 290 290 289 287 284 279 274 270 265 262 258 255 254 255 257 260 264 271 284 301 316 324 323 316 310 307 307 307 307 306 305 304 303 302 301 301 302 302 302 302 302 301 301 300 300 299 299 298 298 297 297 297 297 297 296 296 295 295 294 293 292 292 291 291
300 296 292 289 289 289 289 287 284 279 274 269 264 258 253 249 248 250 254 259 267 279 292 307 320 326 326 320 313 308 306 306 306 306 305 304 303 302 302 301 302 302 303 302 302 302 301 301 300 300 299 299 299 298 298 298 298 298 297 296 295 294 293 292 291 290 289 290 291
300 296 292 289 288 287 285 282 278 274 269 262 254 247 244 245 247 252 259 271 286 302 315 324 329 328 322 314 309 306 305 305 305 305 304 303 303 302 302 302 302 303 303 303 302 302 301 301 300 300 300 299 299 299 299 299 298 297 296 295 294 292 291 289 288 288 289 291 295
300 297 293 290 286 283 279 276 272 267 260 251 244 242 244 248 254 263 277 294 309 321 328 332 330 323 315 308 305 304 304 305 305 305 304 304 303 302 302 302 303 303 303 303 302 302 302 301 300 300 300 300 300 300 300 299 298 296 295 293 292 290 289 288 288 289 292 296 301
297 294 290 286 282 278 274 269 263 255 247 242 242 245 250 257 270 286 303 315 325 331 334 331 324 314 307 303 303 304 305 305 305 305 304 304 303 303 303 303 303 303 303 303 303 302 302 301 301 301 302 302 302 301 300 299 298 296 294 293 293 293 294 294 295 296 299 303 306
289 285 281 278 274 270 263 255 247 242 241 243 248 255 264 277 294 309 320 327 333 334 331 323 314 307 303 303 304 305 306 305 305 304 304 303 303 303 303 303 303 304 304 303 303 302 302 302 302 303 303 303 302 301 300 299 299 297 297 297 298 301 303 305 306 306 306 305 303
281 276 271 265 259 252 244 238 238 240 245 252 262 274 288 302 313 321 328 333 333 329 321 312 306 303 303 305 306 306 306 305 304 304 303 303 304 304 304 304 304 304 304 304 303 303 303 303 304 304 304 304 302 301 301 302 301 301 301 302 305 310 313 314 312 308 304 299 296
272 266 258 248 239 233 232 235 242 251 261 272 284 296 307 315 321 327 330 331 326 317 309 304 302 303 305 306 306 305 304 304 303 303 304 304 304 304 305 305 305 305 304 304 304 304 305 305 306 306 305 304 303 304 305 305 304 304 304 307 311 314 314 311 306 300 296 293 292
256 249 240 233 230 232 239 249 261 274 285 294 303 310 315 320 324 326 326 321 312 305 301 301 303 305 306 306 305 304 303 303 303 303 304 304 304 305 305 305 305 305 305 305 305 306 307 307 307 307 306 305 305 306 307 307 306 306 307 310 312 311 307 302 298 296 294 293 293
243 238 234 234 241 252 264 275 285 293 300 306 311 315 318 321 322 320 314 306 301 299 300 303 304 305 305 305 304 303 303 303 303 304 304 305 305 305 305 306 306 306 306 307 308 309 310 310 310 309 308 308 308 308 308 307 307 308 309 310 308 305 301 299 298 298 297 296 296
239 238 243 254 268 281 290 295 300 303 307 311 315 318 319 318 313 307 301 298 299 300 302 304 304 304 304 304 303 303 303 304 305 305 305 305 305 306 306 307 307 308 309 310 312 314 314 314 314 314 313 313 311 310 309 309 310 311 311 309 306 304 303 303 302 302 301 300 299
Height
1490 1489 1488 1486 1484 1483 1481 1479 1477 1475 1474 1472 1471 1471 1472 1473 1473 1474 1475 1476 1477 1478 1479 1480 1481 1481 1481 1481 1481 1481 1481 1481 1481 1480 1480 1479 1479 1478 1478 1478 1478 1478 1479 1479 1480 1480 1481 1481 1481 1481 1480 1480 1480 1480 1480 1480 1480 1480 1479 1479 1479 1479 1478 1478 1478 1478 1477 1477 1477
1488 1487 1486 1485 1483 1482 1480 1478 1476 1475 1473 1472 1471 1471 1472 1473 1473 1474 1475 1476 1477 1477 1478 1479 1479 1480 1480 1480 1480 1479 1479 1478 1478 1477 1477 1476 1476 1476 1476 1477 1477 1478 1478 1478 1478 1479 1479 1479 1479 1479 1478 1478 1478 1478 1478 1478 1478 1478 1478 1477 1477 1477 1477 1476 1476 1475 1475 1475 1475
1487 1486 1485 1483 1482 1481 1479 1478 1476 1475 1474 1473 1472 1472 1473 1473 1473 1474 1475 1475 1476 1476 1477 1478 1478 1478 1478 1478 1478 1477 1476 1476 1475 1475 1475 1475 1475 1475 1476 1476 1477 1477 1477 1478 1478 1478 1478 1478 1478 1477 1477 1477 1477 1477 1477 1477 1477 1476 1476 1475 1475 1475 1474 1474 1473 1473 1473 1473 1472
1485 1484 1483 1482 1481 1480 1479 1478 1477 1476 1475 1474 1473 1473 1473 1474 1474 1474 1474 1474 1475 1476 1476 1477 1477 1477 1476 1476 1475 1475 1475 1475 1474 1475 1475 1475 1475 1475 1476 1476 1476 1476 1476 1476 1476 1476 1476 1476 1476 1475 1475 1475 1475 1475 1475 1475 1475 1474 1474 1473 1473 1473 1472 1472 1471 1471 1471 1470 1470
1483 1482 1482 1481 1480 1479 1479 1478 1477 1476 1476 1475 1475 1475 1475 1475 1475 1475 1475 1475 1475 1476 1476 1476 1476 1476 1475 1475 1475 1475 1475 1475 1475 1474 1474 1474 1475 1475 1475 1475 1475 1475 1475 1475 1475 1475 1475 1475 1474 1474 1474 1474 1474 1473 1473 1473 1473 1472 1472 1471 1471 1471 1470 1469 1469 1469 1468 1468 1468
1482 1481 1480 1480 1479 1479 1478 1478 1477 1476 1476 1476 1476 1476 1476 1476 1475 1475 1475 1475 1475 1475 1475 1475 1475 1475 1475 1475 1475 1475 1474 1474 1474 1474 1474 1474 1474 1474 1474 1474 1474 1474 1474 1474 1474 1473 1473 1473 1473 1473 1473 1473 1472 1472 1472 1471 1471 1470 1469 1469 1468 1468 1468 1467 1467 1467 1466 1466 1465
1481 1480 1479 1479 1478 1478 1478 1477 1477 1476 1476 1476 1476 1476 1476 1476 1476 1475 1475 1475 1475 1474 1474 1474 1474 1473 1473 1473 1473 1473 1473 1473 1473 1473 1473 1473 1473 1473 1473 1473 1473 1473 1473 1473 1473 1473 1473 1472 1472 1471 1471 1471 1470 1470 1469 1469 1468 1468 1467 1466 1466 1466 1466 1465 1464 1464 1464 1463 1463
1480 1479 1478 1478 1478 1477 1477 1476 1476 1476 1476 1475 1475 1475 1475 1475 1475 1475 1475 1474 1474 1473 1473 1472 1471 1471 1471 1471 1471 1472 1472 1473 1473 1473 1473 1473 1472 1472 1472 1472 1471 1471 1472 1472 1472 1471 1471 1471 1470 1470 1469 1469 1468 1468 1467 1467 1466 1466 1465 1464 1463 1463 1463 1463 1462 1462 1461 1461 1460
1479 1478 1478 1478 1477 1476 1476 1475 1475 1475 1474 1474 1474 1475 1475 1475 1475 1474 1474 1473 1473 1472 1471 1470 1469 1469 1469 1470 1471 1471 1472 1472 1472 1471 1471 1471 1471 1470 1470 1470 1470 1470 1471 1471 1470 1470 1470 1469 1469 1468 1468 1467 1466 1466 1465 1465 1464 1463 1463 1462 1461 1461 1461 1460 1460 1459 1459 1458 1458
1479 1478 1478 1477 1476 1476 1475 1474 1474 1473 1473 1473 1473 1473 1474 1474 1474 1473 1473 1472 1471 1470 1470 1469 1468 1468 1469 1470 1470 1470 1470 1470 1470 1470 1470 1469 1469 1469 1469 1469 1469 1469 1469 1469 1469 1468 1468 1468 1467 1466 1466 1465 1464 1463 1463 1463 1462 1461 1460 1459 1459 1458 1458 1458 1458 1457 1456 1456 1455
1478 1478 1477 1476 1475 1475 1474 1473 1473 1473 1472 1472 1472 1472 1472 1472 1472 1472 1471 1471 1470 1469 1469 1468 1468 1469 1469 1469 1469 1469 1469 1469 1469 1468 1468 1468 1468 1468 1469 1469 1468 1468 1468 1468 1467 1467 1466 1466 1465 1464 1463 1463 1462 1462 1461 1460 1459 1459 1458 1457 1457 1456 1455 1455 1455 1454 1454 1453 1452
1478 1477 1476 1475 1474 1473 1473 1473 1472 1471 1471 1471 1470 1470 1470 1470 1470 1470 1470 1469 1468 1468 1468 1468 1468 1468 1468 1468 1468 1468 1468 1468 1468 1468 1468 1468 1468 1468 1468 1468 1467 1467 1466 1466 1466 1465 1464 1463 1463 1462 1461 1461 1460 1459 1459 1458 1457 1456 1455 1455 1454 1453 1453 1452 1452 1451 1451 1450 1449
1477 1476 1475 1474 1473 1472 1472 1471 1471 1470 1470 1470 1469 1469 1469 1468 1468 1468 1468 1467 1467 1467 1467 1467 1467 1467 1467 1467 1467 1467 1467 1467 1467 1467 1467 1467 1467 1467 1466 1466 1466 1465 1465 1464 1464 1463 1463 1462 1461 1460 1459 1458 1458 1457 1457 1456 1455 1454 1453 1452 1451 1451 1450 1449 1449 1448 1448 1447 1447
1475 1474 1473 1473 1472 1471 1471 1470 1470 1470 1470 1469 1469 1469 1468 1467 1467 1466 1466 1465 1465 1465 1466 1466 1466 1466 1466 1466 1466 1466 1466 1466 1466 1466 1466 1466 1465 1465 1465 1464 1464 1463 1463 1463 1462 1461 1460 1459 1459 1458 1457 1456 1455 1455 1454 1453 1452 1451 1450 1449 1448 1448 1447 1446 1446 1445 1445 1444 1443
1473 1473 1472 1471 1471 1470 1470 1470 1469 1469 1469 1468 1468 1468 1467 1466 1465 1465 1465 1465 1465 1465 1465 1465 1465 1465 1465 1465 1465 1465 1465 1465 1465 1465 1464 1464 1464 1463 1463 1463 1462 1462 1461 1460 1460 1459 1458 1458 1457 1456 1455 1454 1453 1452 1451 1451 1450 1449 1448 1447 1446 1445 1444 1444 1443 1443 1442 1441 1441
1472 1472 1471 1471 1470 1470 1469 1469 1469 1468 1468 1467 1467 1466 1465 1465 1465 1465 1465 1464 1464 1464 1464 1464 1464 1464 1464 1464 1464 1464 1463 1463 1463 1463 1463 1463 1462 1462 1461 1461 1460 1460 1459 1458 1458 1457 1456 1455 1454 1453 1453 1451 1450 1449 1449 1448 1447 1446 1445 1444 1443 1443 1442 1441 1441 1440 1439 1439 1438
1472 1471 1471 1470 1469 1469 1469 1468 1468 1467 1467 1466 1466 1465 1464 1464 1463 1463 1463 1463 1463 1463 1463 1463 1463 1463 1463 1463 1462 1462 1462 1462 1462 1462 1461 1461 1460 1460 1459 1459 1458 1458 1457 1456 1455 1454 1453 1453 1452 1451 1450 1449 1448 1447 1446 1445 1444 1443 1443 1442 1441 1440 1439 1439 1438 1438 1437 1436 1436
1471 1471 1470 1469 1469 1468 1468 1467 1467 1466 1465 1465 1464 1464 1463 1463 1463 1463 1463 1463 1463 1463 1463 1462 1462 1462 1461 1461 1461 1461 1461 1461 1460 1460 1460 1459 1459 1458 1458 1457 1456 1456 1455 1454 1453 1452 1451 1450 1449 1448 1448 1447 1446 1444 1443 1443 1442 1441 1440 1439 1438 1438 1437 1436 1436 1435 1434 1434 1433
1471 1470 1470 1469 1468 1468 1467 1466 1465 1464 1464 1463 1463 1463 1463 1463 1462 1462 1462 1462 1462 1462 1462 1461 1460 1460 1460 1460 1460 1460 1460 1459 1459 1459 1458 1458 1457 1456 1456 1455 1454 1453 1453 1452 1451 1450 1449 1448 1447 1446 1445 1444 1443 1442 1441 1440 1439 1438 1438 1437 1436 1435 1434 1433 1433 1433 1432 1431 1430
1470 1469 1469 1468 1467 1467 1466 1465 1464 1463 1463 1463 1462 1462 1462 1462 1462 1462 1462 1462 1461 1461 1460 1460 1459 1459 1459 1459 1459 1459 1458 1458 1458 1457 1457 1456 1455 1454 1454 1453 1452 1451 1450 1449 1448 1447 1446 1445 1444 1443 1443 1442 1441 1439 1438 1438 1437 1436 1435 1434 1433 1432 1432 1431 1430 1429 1429 1428 1428
1469 1469 1468 1467 1466 1465 1464 1464 1463 1462 1462 1462 1461 1461 1461 1461 1461 1461 1461 1461 1460 1460 1459 1458 1458 1458 1458 1458 1458 1458 1457 1457 1456 1456 1455 1454 1453 1453 1452 1451 1450 1449 1448 1447 1446 1445 1444 1443 1442 1441 1440 1439 1438 1437 1436 1435 1434 1433 1432 1431 1430 1429 1428 1428 1427 1426 1426 1425 1424
1469 1468 1467 1466 1465 1464 1463 1462 1462 1461 1461 1461 1460 1460 1460 1460 1460 1460 1460 1459 1459 1458 1458 1458 1457 1457 1457 1457 1457 1456 1456 1455 1454 1454 1453 1452 1451 1450 1449 1448 1448 1446 1445 1444 1443 1443 1442 1441 1440 1439 1438 1437 1436 1435 1433 1433 1431 1430 1429 1428 1427 1426 1426 1425 1424 1423 1423 1422 1422
1468 1467 1466 1465 1463 1463 1462 1461 1460 1460 1460 1460 1460 1459 1459 1460 1459 1459 1458 1458 1457 1457 1457 1457 1457 1456 1456 1456 1455 1454 1454 1453 1452 1452 1451 1450 1449 1448 1447 1446 1445 1444 1443 1442 1442 1441 1440 1438 1438 1437 1436 1434 1433 1432 1431 1430 1429 1428 1426 1425 1424 1423 1423 1422 1421 1420 1420 1419 1418
1467 1466 1465 1463 1463 1462 1461 1460 1459 1459 1459 1459 1459 1459 1459 1458 1458 1458 1457 1456 1456 1456 1456 1456 1455 1455 1455 1454 1453 1453 1452 1451 1450 1449 1448 1448 1447 1446 1445 1444 1443 1442 1441 1440 1439 1438 1438 1437 1435 1434 1433 1432 1431 1429 1428 1427 1426 1425 1424 1423 1422 1421 1419 1419 1418 1417 1417 1416 1415
1465 1464 1463 1463 1462 1461 1460 1459 1459 1459 1458 1458 1458 1458 1457 1457 1456 1456 1455 1455 1455 1455 1455 1454 1454 1453 1453 1452 1452 1451 1450 1448 1448 1447 1446 1445 1444 1443 1443 1442 1441 1440 1439 1438 1438 1437 1436 1434 1433 1432 1431 1429 1428 1427 1426 1425 1423 1423 1421 1420 1419 1418 1416 1415 1414 1414 1413 1413 1412
1463 1463 1462 1462 1461 1460 1460 1459 1458 1458 1458 1458 1457 1456 1456 1455 1455 1455 1454 1454 1454 1454 1453 1453 1453 1452 1451 1450 1449 1448 1448 1447 1446 1444 1443 1443 1442 1441 1440 1439 1438 1438 1437 1436 1435 1434 1433 1432 1431 1430 1428 1427 1426 1424 1423 1422 1421 1420 1418 1417 1416 1415 1413 1412 1411 1410 1409 1409 1408
1462 1461 1461 1460 1460 1459 1458 1458 1458 1457 1457 1456 1456 1455 1455 1454 1454 1454 1453 1453 1453 1453 1452 1452 1451 1450 1449 1448 1447 1446 1445 1444 1443 1443 1442 1441 1440 1439 1438 1437 1437 1436 1435 1434 1433 1432 1431 1430 1429 1428 1426 1425 1423 1422 1420 1419 1418 1417 1416 1414 1413 1412 1411 1409 1408 1407 1406 1405 1404
1460 1460 1459 1458 1458 1457 1457 1456 1456 1456 1455 1455 1454 1454 1454 1453 1453 1453 1452 1452 1452 1451 1451 1450 1448 1448 1447 1446 1445 1444 1443 1443 1442 1441 1440 1438 1438 1437 1436 1435 1434 1433 1433 1432 1431 1430 1428 1427 1426 1425 1424 1422 1421 1419 1418 1416 1415 1414 1413 1411 1410 1409 1408 1406 1405 1403 1402 1401 1400
1459 1458 1458 1457 1456 1456 1455 1455 1455 1454 1454 1453 1453 1453 1453 1452 1452 1452 1451 1451 1450 1449 1448 1447 1446 1445 1444 1443 1443 1443 1442 1441 1440 1439 1438 1437 1436 1435 1434 1433 1432 1431 1430 1429 1428 1427 1426 1425 1423 1422 1421 1420 1418 1417 1415 1413 1412 1411 1409 1408 1407 1405 1404 1403 1401 1400 1399 1398 1397
1457 1457 1456 1455 1455 1455 1454 1454 1453 1453 1453 1452 1452 1452 1451 1451 1451 1450 1450 1449 1448 1447 1445 1444 1443 1443 1442 1441 1441 1441 1440 1439 1438 1437 1436 1435 1434 1433 1432 1431 1430 1429 1428 1427 1426 1425 1423 1422 1421 1419 1418 1417 1415 1414 1412 1411 1409 1408 1406 1405 1403 1402 1401 1399 1398 1397 1396 1395 1394
1456 1455 1455 1454 1454 1453 1453 1453 1452 1452 1451 1451 1451 1450 1450 1450 1450 1449 1448 1446 1445 1444 1443 1442 1441 1440 1440 1439 1439 1439 1438 1437 1436 1435 1434 1433 1432 1431 1430 1429 1428 1427 1426 1425 1423 1422 1421 1419 1418 1417 1415 1414 1413 1411 1409 1408 1406 1404 1403 1401 1400 1398 1397 1396 1395 1394 1393 1392 1392
1454 1454 1453 1453 1453 1452 1452 1451 1451 1451 1450 1450 1449 1449 1449 1448 1448 1446 1445 1443 1442 1441 1441 1440 1439 1438 1438 1438 1438 1437 1436 1435 1434 1433 1432 1431 1430 1428 1428 1426 1425 1424 1423 1422 1421 1419 1418 1417 1415 1414 1413 1411 1410 1408 1406 1405 1403 1401 1400 1398 1397 1396 1394 1393 1393 1392 1391 1390 1390
1453 1453 1452 1452 1451 1451 1451 1450 1450 1449 1449 1448 1448 1448 1447 1446 1445 1443 1442 1441 1440 1439 1438 1438 1437 1437 1436 1436 1436 1435 1434 1433 1432 1431 1430 1429 1428 1427 1425 1424 1423 1422 1421 1419 1418 1417 1415 1414 1413 1411 1410 1408 1407 1405 1403 1401 1400 1398 1397 1395 1394 1393 1392 1391 1390 1390 1389 1388 1388
1452 1451 1451 1450 1450 1450 1449 1449 1448 1448 1448 1447 1447 1446 1444 1443 1442 1441 1440 1439 1438 1438 1437 1436 1435 1435 1435 1435 1434 1433 1432 1431 1430 1429 1428 1427 1426 1424 1423 1422 1421 1420 1418 1417 1416 1414 1413 1412 1410 1408 1407 1405 1403 1402 1400 1398 1397 1395 1394 1393 1392 1391 1390 1389 1389 1388 1387 1387 1386
1450 1450 1449 1449 1449 1449 1448 1448 1447 1447 1446 1445 1444 1443 1442 1441 1440 1439 1438 1438 1437 1436 1435 1434 1434 1434 1434 1433 1433 1432 1430 1429 1428 1427 1426 1425 1423 1422 1421 1419 1418 1418 1416 1415 1413 1412 1410 1409 1408 1406 1404 1403 1400 1399 1397 1395 1394 1393 1392 1391 1389 1389 1388 1388 1387 1386 1385 1384 1384
1449 1448 1448 1448 1447 1447 1447 1446 1445 1444 1444 1443 1442 1441 1440 1439 1439 1438 1437 1436 1435 1434 1433 1433 1434 1433 1433 1432 1431 1430 1428 1427 1426 1425 1424 1423 1421 1420 1418 1417 1416 1415 1414 1413 1411 1409 1408 1406 1405 1403 1401 1399 1398 1396 1394 1393 1392 1391 1389 1388 1388 1387 1386 1386 1385 1384 1383 1383 1382
1447 1447 1446 1446 1445 1445 1444 1444 1443 1442 1442 1441 1440 1439 1438 1438 1437 1436 1435 1434 1433 1433 1433 1433 1433 1432 1431 1430 1429 1428 1427 1425 1424 1423 1422 1420 1419 1418 1416 1415 1414 1413 1412 1410 1408 1407 1405 1404 1402 1401 1399 1397 1395 1394 1393 1391 1390 1389 1388 1387 1386 1385 1384 1383 1383 1382 1381 1380 1379
1445 1445 1445 1444 1443 1443 1443 1442 1441 1441 1440 1439 1438 1438 1437 1436 1435 1434 1433 1433 1433 1433 1433 1432 1431 1430 1429 1428 1427 1426 1424 1423 1422 1421 1419 1418 1417 1416 1414 1413 1412 1410 1409 1408 1406 1404 1403 1401 1400 1398 1396 1395 1393 1392 1391 1389 1388 1387 1386 1385 1384 1383 1383 1382 1381 1380 1378 1377 1376
1444 1443 1443 1443 1442 1442 1441 1440 1440 1439 1438 1438 1437 1436 1435 1434 1433 1433 1433 1433 1433 1432 1431 1430 1429 1428 1427 1426 1425 1423 1423 1422 1420 1419 1418 1416 1415 1414 1413 1411 1409 1408 1407 1405 1404 1402 1401 1399 1397 1396 1394 1393 1392 1390 1389 1388 1386 1385 1384 1383 1383 1382 1381 1379 1378 1377 1375 1374 1373
1442 1442 1442 1441 1441 1440 1439 1439 1438 1438 1437 1436 1435 1435 1434 1433 1433 1433 1433 1432 1432 1431 1430 1428 1428 1426 1425 1424 1423 1422 1420 1419 1418 1417 1416 1415 1413 1412 1411 1409 1407 1406 1404 1403 1402 1400 1398 1397 1395 1394 1392 1391 1390 1389 1388 1386 1385 1383 1383 1382 1381 1379 1378 1376 1374 1373 1372 1371 1370
1441 1440 1440 1440 1439 1439 1438 1438 1437 1437 1436 1435 1435 1434 1433 1433 1433 1432 1432 1431 1430 1429 1428 1427 1425 1424 1423 1422 1421 1420 1418 1418 1417 1415 1414 1413 1412 1410 1409 1407 1405 1403 1402 1401 1399 1398 1396 1394 1393 1392 1391 1390 1388 1387 1386 1385 1383 1382 1381 1380 1378 1377 1375 1373 1372 1370 1369 1368 1367